Kearney, NE

10:57 PM CDT on May 22, 2017 (GMT -0500)
Kearney Municipal

Weather History for KEAR - October, 2013

Change the Weather History Date:

Friday, October 25, 2013

  Actual Average Record
Temperature  
Mean Temperature 46 °F 47 °F  
Max Temperature 57 °F 61 °F 87 °F (1940)
Min Temperature 34 °F 34 °F 16 °F (1936)
Degree Days  
Heating Degree Days 19 18  
Month to date heating degree days 330  
Cooling Degree Days 0 0  
Month to date cooling degree days 4  
Moisture  
Dew Point 31 °F    
Average Humidity 61    
Maximum Humidity 82    
Minimum Humidity 40    
Precipitation  
Precipitation 0.00 in - 1.27 in (1997)
Sea Level Pressure  
Sea Level Pressure 30.22 in    
Wind  
Wind Speed 13 mph (SSW)    
Max Wind Speed 27 mph    
Max Gust Speed 32 mph    
Visibility 10 miles    
Events      
T = Trace of Precipitation, MM = Missing Value Source: NWS Daily Summary

Daily Weather History Graph

Daily Weather History Graph

Search for Another Location

Airport or City:

Trip Planner

Search our weather history database for the weather conditions in past years. The results will help you decide how hot, cold, wet, or windy it might be!

Date:

Astronomy

Oct. 25, 2013 Rise Set
Actual Time 7:58 AM CDT 6:40 PM CDT
Civil Twilight 7:30 AM CDT 7:08 PM CDT
Nautical Twilight 6:58 AM CDT 7:40 PM CDT
Astronomical Twilight 6:26 AM CDT 8:12 PM CDT
Moon No Moon Rise 1:40 PM CDT (10/25)
Length of Visible Light 11h 38m
Length of Day
10h 42m
Waning Gibbous, 62% of the Moon is Illuminated
Oct 25
Waning Gibbous
Oct 26
Last Quarter
Nov 3
New
Nov 9
First Quarter
Nov 17
Full

Hourly Weather History & Observations

Time (CDT) Temp. Windchill Dew Point Humidity Pressure Visibility Wind Dir Wind Speed Gust Speed Precip Events Conditions
12:15 AM 33.8 °F 27.0 °F 28.4 °F 81% 30.35 in 10.0 mi South 8.1 mph - N/A   Clear
12:35 AM 33.8 °F 27.0 °F 28.4 °F 81% 30.35 in 10.0 mi South 8.1 mph - N/A   Clear
12:55 AM 33.8 °F 27.7 °F 28.4 °F 81% 30.35 in 10.0 mi South 6.9 mph - N/A   Scattered Clouds
1:15 AM 35.6 °F 30.7 °F 30.2 °F 81% 30.35 in 10.0 mi South 5.8 mph - N/A   Overcast
1:35 AM 39.2 °F 32.5 °F 30.2 °F 70% 30.35 in 10.0 mi SSW 10.4 mph - N/A   Overcast
1:55 AM 41.0 °F 33.9 °F 30.2 °F 65% 30.35 in 10.0 mi SSW 12.7 mph - N/A   Overcast
2:15 AM 42.8 °F 36.2 °F 28.4 °F 57% 30.35 in 10.0 mi SSW 12.7 mph - N/A   Overcast
2:35 AM 42.8 °F 35.4 °F 28.4 °F 57% 30.34 in 10.0 mi SSW 15.0 mph - N/A   Overcast
2:55 AM 42.8 °F 35.4 °F 28.4 °F 57% 30.34 in 10.0 mi SSW 15.0 mph - N/A   Overcast
3:15 AM 42.8 °F 36.6 °F 28.4 °F 57% 30.35 in 10.0 mi SSW 11.5 mph - N/A   Overcast
3:35 AM 41.0 °F 35.2 °F 26.6 °F 57% 30.35 in 10.0 mi SSW 9.2 mph - N/A   Overcast
3:55 AM 39.2 °F 32.0 °F 26.6 °F 61% 30.34 in 10.0 mi SSW 11.5 mph - N/A   Mostly Cloudy
4:15 AM 37.4 °F 30.8 °F 26.6 °F 65% 30.34 in 10.0 mi SSW 9.2 mph - N/A   Scattered Clouds
4:35 AM 37.4 °F 31.4 °F 26.6 °F 65% 30.34 in 10.0 mi SSW 8.1 mph - N/A   Scattered Clouds
4:55 AM 35.6 °F 29.2 °F 26.6 °F 70% 30.33 in 10.0 mi SSW 8.1 mph - N/A   Clear
5:15 AM 35.6 °F 28.0 °F 26.6 °F 70% 30.33 in 10.0 mi SSW 10.4 mph - N/A   Clear
5:35 AM 35.6 °F 27.5 °F 26.6 °F 70% 30.32 in 10.0 mi SSW 11.5 mph - N/A   Clear
5:55 AM 35.6 °F 27.1 °F 26.6 °F 70% 30.32 in 10.0 mi SSW 12.7 mph - N/A   Clear
6:15 AM 35.6 °F 27.1 °F 26.6 °F 70% 30.32 in 10.0 mi SSW 12.7 mph - N/A   Clear
6:35 AM 35.6 °F 28.0 °F 26.6 °F 70% 30.32 in 10.0 mi SSW 10.4 mph - N/A   Clear
6:55 AM 35.6 °F 27.1 °F 26.6 °F 70% 30.32 in 10.0 mi SSW 12.7 mph - N/A   Clear
7:15 AM 35.6 °F 26.6 °F 26.6 °F 70% 30.32 in 10.0 mi SSW 13.8 mph - N/A   Clear
7:35 AM 35.6 °F 27.1 °F 26.6 °F 70% 30.32 in 10.0 mi SSW 12.7 mph - N/A   Clear
7:55 AM 33.8 °F 25.8 °F 26.6 °F 75% 30.31 in 10.0 mi SSW 10.4 mph - N/A   Clear
8:15 AM 35.6 °F 27.5 °F 26.6 °F 70% 30.31 in 9.0 mi SSW 11.5 mph - N/A   Clear
8:35 AM 35.6 °F 28.6 °F 26.6 °F 70% 30.31 in 10.0 mi SSW 9.2 mph - N/A   Clear
8:55 AM 35.6 °F 29.2 °F 28.4 °F 75% 30.32 in 10.0 mi SSW 8.1 mph - N/A   Clear
9:15 AM 37.4 °F 29.8 °F 28.4 °F 70% 30.31 in 10.0 mi SSW 11.5 mph - N/A   Clear
9:35 AM 39.2 °F 31.2 °F 28.4 °F 65% 30.31 in 10.0 mi SSW 13.8 mph - N/A   Clear
9:55 AM 42.8 °F 35.1 °F 30.2 °F 61% 30.31 in 10.0 mi SSW 16.1 mph 24.2 mph N/A   Clear
10:15 AM 42.8 °F 34.3 °F 30.2 °F 61% 30.30 in 10.0 mi SSW 19.6 mph 24.2 mph N/A   Clear
10:35 AM 44.6 °F 36.1 °F 30.2 °F 57% 30.29 in 10.0 mi SSW 21.9 mph - N/A   Clear
10:55 AM 46.4 °F 38.1 °F 30.2 °F 53% 30.29 in 10.0 mi SSW 24.2 mph 29.9 mph N/A   Clear
11:15 AM 48.2 °F - 30.2 °F 50% 30.28 in 10.0 mi SSW 23.0 mph 26.5 mph N/A   Clear
11:35 AM 48.2 °F - 32.0 °F 54% 30.28 in 10.0 mi SSW 17.3 mph - N/A   Clear
11:55 AM 50.0 °F - 32.0 °F 50% 30.27 in 10.0 mi SSW 17.3 mph 23.0 mph N/A   Clear
12:15 PM 51.8 °F - 32.0 °F 47% 30.25 in 10.0 mi SSW 26.5 mph 32.2 mph N/A   Clear
12:35 PM 51.8 °F - 32.0 °F 47% 30.24 in 10.0 mi SSW 23.0 mph 29.9 mph N/A   Clear
12:55 PM 53.6 °F - 33.8 °F 47% 30.22 in 10.0 mi SSW 21.9 mph 28.8 mph N/A   Clear
1:15 PM 53.6 °F - 33.8 °F 47% 30.21 in 10.0 mi SSW 23.0 mph 26.5 mph N/A   Clear
1:35 PM 55.4 °F - 33.8 °F 44% 30.19 in 10.0 mi SSW 23.0 mph 26.5 mph N/A   Clear
1:55 PM 55.4 °F - 33.8 °F 44% 30.18 in 10.0 mi SSW 16.1 mph 26.5 mph N/A   Clear
2:15 PM 57.2 °F - 33.8 °F 41% 30.17 in 10.0 mi South 19.6 mph 28.8 mph N/A   Clear
2:35 PM 57.2 °F - 33.8 °F 41% 30.15 in 10.0 mi SSW 21.9 mph 25.3 mph N/A   Clear
2:55 PM 57.2 °F - 33.8 °F 41% 30.14 in 10.0 mi SW 18.4 mph 27.6 mph N/A   Clear
3:15 PM 57.2 °F - 33.8 °F 41% 30.13 in 10.0 mi SSW 23.0 mph 27.6 mph N/A   Clear
3:35 PM 57.2 °F - 33.8 °F 41% 30.11 in 10.0 mi South 21.9 mph 28.8 mph N/A   Clear
3:55 PM 57.2 °F - 35.6 °F 44% 30.11 in 10.0 mi SSW 19.6 mph 29.9 mph N/A   Clear
4:15 PM 57.2 °F - 33.8 °F 41% 30.11 in 10.0 mi SSW 19.6 mph 25.3 mph N/A   Clear
4:35 PM 57.2 °F - 33.8 °F 41% 30.10 in 10.0 mi SSW 18.4 mph 28.8 mph N/A   Clear
4:55 PM 57.2 °F - 35.6 °F 44% 30.10 in 10.0 mi SW 18.4 mph 26.5 mph N/A   Clear
5:15 PM 57.2 °F - 33.8 °F 41% 30.10 in 10.0 mi SSW 18.4 mph 25.3 mph N/A   Clear
5:35 PM 55.4 °F - 33.8 °F 44% 30.09 in 10.0 mi SSW 19.6 mph 24.2 mph N/A   Clear
5:55 PM 55.4 °F - 33.8 °F 44% 30.08 in 10.0 mi SSW 18.4 mph - N/A   Clear
6:15 PM 53.6 °F - 33.8 °F 47% 30.08 in 10.0 mi South 12.7 mph - N/A   Clear
6:35 PM 51.8 °F - 33.8 °F 50% 30.07 in 10.0 mi South 11.5 mph - N/A   Clear
6:55 PM 48.2 °F - 33.8 °F 58% 30.08 in 10.0 mi South 8.1 mph - N/A   Clear
7:15 PM 48.2 °F - 33.8 °F 58% 30.08 in 10.0 mi South 9.2 mph - N/A   Clear
7:35 PM 44.6 °F 39.7 °F 32.0 °F 61% 30.08 in 10.0 mi South 9.2 mph - N/A   Clear
7:55 PM 44.6 °F 40.2 °F 32.0 °F 61% 30.08 in 10.0 mi South 8.1 mph - N/A   Clear
8:15 PM 42.8 °F 38.0 °F 32.0 °F 66% 30.09 in 10.0 mi South 8.1 mph - N/A   Clear
8:35 PM 42.8 °F 38.6 °F 32.0 °F 66% 30.08 in 10.0 mi South 6.9 mph - N/A   Clear
8:55 PM 42.8 °F 40.1 °F 32.0 °F 66% 30.08 in 10.0 mi South 4.6 mph - N/A   Clear
9:15 PM 44.6 °F 39.7 °F 32.0 °F 61% 30.08 in 10.0 mi SSW 9.2 mph - N/A   Clear
9:35 PM 42.8 °F 38.6 °F 32.0 °F 66% 30.09 in 10.0 mi SSW 6.9 mph - N/A   Clear
9:55 PM 42.8 °F 38.0 °F 32.0 °F 66% 30.09 in 10.0 mi SSW 8.1 mph - N/A   Clear
10:15 PM 42.8 °F 37.5 °F 32.0 °F 66% 30.09 in 10.0 mi SSW 9.2 mph - N/A   Clear
10:35 PM 42.8 °F 38.0 °F 32.0 °F 66% 30.09 in 10.0 mi SW 8.1 mph - N/A   Clear
10:55 PM 44.6 °F 38.8 °F 33.8 °F 66% 30.09 in 10.0 mi SW 11.5 mph - N/A   Clear
11:15 PM 44.6 °F 40.7 °F 33.8 °F 66% 30.09 in 10.0 mi WSW 6.9 mph - N/A   Clear
11:35 PM 44.6 °F 40.7 °F 33.8 °F 66% 30.08 in 10.0 mi SW 6.9 mph - N/A   Clear
11:55 PM 44.6 °F 40.2 °F 33.8 °F 66% 30.08 in 10.0 mi SW 8.1 mph - N/A   Clear